Regional Weather Roundup
Issued by NWS

Home | Current Version | Previous Version | Text Only | Print | Product List | Glossary Off
Versions: 1 2 3 4 5 6 7 8 9 10 11 12 13 14 15 16 17 18 19 20 21 22 23 24 25 26 27 28 29 30 31 32 33 34 35 36 37 38 39 40 41 42 43 44 45 46 47 48 49 50

000
ASUS43 KMKX 300921
RWRWI

WISCONSIN REGIONAL WEATHER ROUNDUP
NATIONAL WEATHER SERVICE MILWAUKEE/SULLIVAN WI
400 AM CDT SAT APR 30 2016

NOTE: "FAIR" INDICATES FEW OR NO CLOUDS BELOW 12,000 FEET WITH NO
SIGNIFICANT WEATHER AND/OR OBSTRUCTIONS TO VISIBILITY.

WIZ001-002-006>008-014>016-023>028-301000-
NORTHWEST WISCONSIN

CITY           SKY/WX    TMP DP  RH WIND       PRES   REMARKS
SUPERIOR ARPT  CLEAR     34  32  92 NE5       30.24F WCI  30
ASHLAND        PTCLDY    36  33  89 NE12      30.22F WCI  28
HAYWARD        CLOUDY    35  29  78 NE6       30.17F WCI  30
SIREN          CLOUDY    36  30  78 NE7       30.15F WCI  31
CUMBERLAND     CLOUDY    37  30  75 NE8       30.13S WCI  31
RICE LAKE      CLOUDY    40  32  71 N9        30.14S WCI  34
CHETEK         CLOUDY    41  32  70 E3        30.13R
LADYSMITH      CLOUDY    39  32  76 NE6       30.15S WCI  35
EAU CLAIRE     CLOUDY    39  34  82 E6        30.12R WCI  35
MENOMONIE      CLOUDY    39  32  75 CALM      30.11S
NEW RICHMOND   CLOUDY    39  32  77 E5        30.12S
OSCEOLA        CLOUDY    39  32  75 CALM      30.15S
$$

WIZ003>005-009-010-017-018-301000-
NORTH CENTRAL WISCONSIN

CITY           SKY/WX    TMP DP  RH WIND       PRES   REMARKS
MANITOWISH WTR CLOUDY    37  31  80 NE3       30.18F
ARBOR VITAE    CLEAR     38  31  77 E3        30.17F
WOODRUFF       CLEAR     38  31  77 E3        30.17F
RHINELANDER    CLOUDY    36  28  73 NE5       30.16F WCI  32
EAGLE RIVER    CLEAR     32  28  83 CALM      30.17F
LAND O LAKES   MOCLDY    36  30  78 NE3       30.20S
PHILLIPS       CLOUDY    34  30  85 N3        30.14F
TOMAHAWK       CLOUDY    34  29  82 NE3       30.16S
MEDFORD        CLOUDY    35  32  88 E5        30.12F WCI  31
MERRILL        CLOUDY    33  30  89 NE6       30.15S WCI  28
$$

WIZ029-030-035-036-043>047-301000-
CENTRAL WISCONSIN

CITY           SKY/WX    TMP DP  RH WIND       PRES   REMARKS
WAUSAU         CLOUDY    40  28  62 SE3       30.12F
MOSINEE        CLOUDY    37  30  75 NE5       30.14S WCI  34
MARSHFIELD     CLOUDY    39  31  72 E7        30.11F WCI  34
STEVENS POINT  CLOUDY    32  31  95 CALM      30.13F
WAUPACA        MOCLDY    37  32  83 CALM      30.14F
WAUTOMA        PTCLDY    34  31  88 N3        30.11F
WISC RAPIDS    CLOUDY    39  31  72 CALM      30.13F
CAMP DOUGLAS   PTCLDY    35  35 100 NE1       30.11S
$$

WIZ011>013-019>022-031-037>040-048>050-301000-
NORTHEAST WISCONSIN

CITY           SKY/WX    TMP DP  RH WIND       PRES   REMARKS
ANTIGO         CLOUDY    33  29  82 NE3       30.15F
SHAWANO        CLOUDY    42  33  70 NE6       30.16R
OCONTO         CLEAR     39  34  82 N8        30.14F WCI  33
STURGEON BAY   CLEAR     39  30  70 NE8       30.17F WCI  34
GREEN BAY      MOCLDY    42  37  82 NE10      30.14F
MANITOWOC      CLOUDY    36  30  79 CALM      30.14F
APPLETON       CLOUDY    37  28  70 CALM      30.12S
CLINTONVILLE   CLOUDY    37  30  75 N5        30.15R WCI  34
OSHKOSH        CLOUDY    38  31  76 NE8       30.12F WCI  32
$$

WIZ032>034-041-042-053>061-301000-
SOUTHWEST WISCONSIN

CITY           SKY/WX    TMP DP  RH WIND       PRES   REMARKS
LA CROSSE      CLOUDY    41  37  86 S3        30.09F
SPARTA         CLOUDY    32  32 100 CALM      30.10F
VIROQUA        CLOUDY    40  36  86 E6        30.07R
BOSCOBEL       CLOUDY    44  38  79 E5        30.08F
PRAIRIE DU CHI CLOUDY    43  36  77 E8        30.06R
PLATTEVILLE    CLOUDY    41  39  93 NE9       30.04S
$$

WIZ056-057-062-063-064-067-068-301000-
SOUTH CENTRAL WISCONSIN

CITY           SKY/WX    TMP DP  RH WIND       PRES   REMARKS
REEDSBURG      CLOUDY    42  37  83 E3        30.10R
BARABOO/DELLS  CLOUDY    41  34  74 E6        30.10R
LONE ROCK      CLOUDY    43  39  86 E7        30.10R
MINERAL POINT  CLOUDY    43  39  87 E9        30.06R
MADISON        CLOUDY    43  34  70 E8        30.10R
MIDDLETON      CLOUDY    45  38  76 E3        30.10R
WATERTOWN      MOCLDY    38  30  73 NE3       30.09S
MONROE         CLOUDY    41  37  87 NE7       30.07R
JANESVILLE     CLOUDY    45  37  76 E7        30.08R
$$

WIZ051-052-058>065-066-070>072-301000-
SOUTHEAST WISCONSIN

CITY           SKY/WX    TMP DP  RH WIND       PRES   REMARKS
MILWAUKEE      CLOUDY    41  35  79 NE6       30.09F
WAUKESHA       CLOUDY    36  30  80 CALM      30.10S
MILWAUKEE/TIMM PTCLDY    37  30  75 NE3       30.10F
RACINE         PTCLDY    45  37  73 E10       30.11F
BURLINGTON     PTCLDY    41  34  75 NE8       30.09R
KENOSHA        CLOUDY    44  37  76 E9        30.08F
FOND DU LAC    CLOUDY    34  29  82 N6        30.11F WCI  29
SHEBOYGAN      CLOUDY    34  27  75 N5        30.11F WCI  30
WEST BEND      CLOUDY    34  30  86 CALM      30.10S
JUNEAU         CLOUDY    39  29  68 NE5       30.11S
$$

LSZ147-162-301000-
LAKE SUPERIOR

STATION/POSITION TIME  TEMP    WIND        PRES    WAVE
                       AIR SEA DIR/SP/G            HT/PER
                 (UTC) (F)     (DEG/KT/KT) (MB)    (FT/S)
W MID LAKE BUOY  0850   38 36   50/ 10/ 12 1025.4R   1/ 3
DEVILS ISLAND    0900   39      70/ 16/ 18 1025.2R
SAXON HARBOR     0800   31     190/  2/  3 1023.0F
$$

LMZ867-665-643>646-301000-
LAKE MICHIGAN

STATION/POSITION TIME  TEMP    WIND        PRES    WAVE
                       AIR SEA DIR/SP/G            HT/PER
                 (UTC) (F)     (DEG/KT/KT) (MB)    (FT/S)
CHAMBERS ISLAND  0800   40      10/  7/  9 1022.7R
N MID LAKE BUOY  0850   40 38   40/ 10/ 12 1022.2F   1
NORTHPORT PIER   0901   40      CALM  /  9 1021.7F
ALGOMA LAKESHORE 0800           20/  7/  9   N/A
KEWAUNEE LAKESHO 0800   45      20/ 10/ 13 1020.3S
SHEBOYGAN LAKESH 0900   43      20/ 10/ 10 1020.4F
PORT WASHINGTON  0840   41      30/  6/  9 1020.0F
S MID LAKE BUOY  0850   42 40   60/ 10/ 12 1018.8F   1
KENOSHA   LAKESH 0900   44      70/ 14/ 16 1019.0R
$$

TC  - TEMPERATURE IN CELSIUS
VSB - VISIBILITY IN STATUTE MILES
WCI - WIND CHILL INDEX
HX  - HEAT INDEX





USA.gov is the U.S. government's official web portal to all federal, state and local government web resources and services.